STARLINK-1540, 46051

Orbit data source: Space-Track

STARLINK-1540, 46051 is a payload satellite owned by SpaceX/Seattle (US) in LEO that was launched on Fri, 07 Aug 2020 UTC via an FALCON 9 launch vehicle from the Air Force Eastern Test Range (AFETR). Payload-class satellites include a variety of spacecraft equipped with specific instruments for various scientific and technological missions. These include communications satellites like Starlink; space stations such as the ISS; scientific satellites like the Hubble; Earth observation satellites from companies like Planet Labs, Umbra, and HawkEye 360; GPS; miniature CubeSats for education and research; and military/defense satellites.

Loading next visibility...
Identifier
46051, 2020-055AA
Orbit
LEO
Country
Flag of USUS
Related business
Manufacturer
SpaceX/Seattle
Mission
Operational Commercial Communications
Bus & Motor
STARLINK, Unknown motor
Mass
260 kg wet, ~248 kg dry
Launch date (UTC)
2020-08-07 (6 years ago)
Launch vehicle
FALCON 9
Launch site
Air Force Eastern Test Range (AFETR)
Object type
Payload
Rocket body
Debris
Shape & HBR
Box + 1 Pan, 10.1 m
Radar Cross Section
13.562 m², Large (>1 m²)

Expand to show TLE details & history
Last TLE update: 20 hours ago

TLE from 20 hours ago
0 STARLINK-1540
1 46051U 20055AA  26227.04718803  .00001131  00000-0  48191-4 0  9991
2 46051  53.1595  97.3078 0001178 108.1623 251.9506 15.31717336333349
Epoch: 2026-08-15T01:07Z
TLE epoch observation values (Epoch: 2026-08-15T01:07:57.045Z)
Latitude
-0.0001°
Longitude
116.85636°
Altitude
471.839 km
Speed
7.631 km/s
True Right ascension
06h 29m 13s
True Declination
0° 00' 00"
Sunlit
Object was in daylight at epoch
Visualization orbit readout
Latitude
Unknown
Longitude
Unknown
Altitude
Unknown
Speed
Unknown
Apparent Right ascension
Unknown
Apparent Declination
Unknown
Sunlit
N/A
Visualization observer readout
Local Sidereal Time
12:05:44
Azimuth
Unknown
Elevation
Unknown
Doppler factor
Unknown
Orbital elements
Apogee altitude
471.752 km
Perigee altitude
470.138 km
Semi-major axis
6,849.082 km
Eccentricity
0.00012
Inclination
53.1595°
RAAN
97.3078°
Arg. of periapsis
108.1623°
True anomaly
251.93777°
Mean anomaly
251.9506°
Eccentric anomaly
251.94418°
Mean motion
3.82908 °/min
Orbital period
94.02 mins
BSTAR
0.000048191
Loading maneuver chart data...
Computing Atmospheric mass density...
Loading historical data...
Loading historical data...
Loading historical data...
Loading historical data...
Loading historical data...
Loading historical data...
Loading historical data...

Documentation

Showing up to 5 results
|